CW9931 Weather Reports


time (UTC)temp
C
wind
direction
speed
KPH
gust
KPH
rain 1hr
cm
rain 24hr
cm
rain mn
cm
humidity
%
barometer
mb
20260504000604 17 196 0.0 0.0 0.00 0.00 0.00 56 1005.7
20260504000104 17 191 0.0 0.0 0.00 0.00 0.00 56 1006.0
20260503235603 17 189 0.0 0.0 0.00 0.00 0.00 55 1006.0
20260503235103 17 194 0.0 0.0 0.00 0.00 0.00 54 1006.0
20260503234603 17 221 0.0 0.0 0.00 0.00 0.00 54 1006.0
20260503234103 17 182 0.0 12.9 0.00 0.00 0.00 54 1006.1
20260503233604 18 166 0.0 12.9 0.00 0.00 0.00 53 1006.2
20260503233104 18 198 1.6 4.8 0.00 0.00 0.00 53 1006.2
20260503232603 17 256 0.0 3.2 0.00 0.00 0.00 54 1006.2
20260503232103 17 174 0.0 3.2 0.00 0.00 0.00 55 1006.2
20260503231603 17 197 1.6 4.8 0.00 0.00 0.00 55 1006.3
20260503231103 17 180 8.0 19.3 0.00 0.00 0.00 55 1006.3
20260503230603 17 168 3.2 12.9 0.00 0.00 0.00 55 1006.4
20260503230104 17 244 0.0 3.2 0.00 0.00 0.00 55 1006.6
20260503225603 17 234 6.4 14.5 0.00 0.00 0.00 54 1006.7
20260503225104 17 162 0.0 12.9 0.00 0.00 0.00 54 1006.7
20260503224603 17 61 0.0 0.0 0.00 0.00 0.00 54 1006.8
20260503224104 17 253 1.6 9.7 0.00 0.00 0.00 53 1006.8
20260503223603 17 186 3.2 22.5 0.00 0.00 0.00 54 1006.8
20260503223104 17 200 0.0 0.0 0.00 0.00 0.00 53 1006.8
20260503222604 17 212 0.0 0.0 0.00 0.00 0.00 54 1006.8
20260503222103 17 171 0.0 0.0 0.00 0.00 0.00 53 1006.8
20260503221603 17 342 0.0 19.3 0.00 0.00 0.00 54 1006.9
20260503221103 17 245 0.0 0.0 0.00 0.00 0.00 54 1007.1
20260503220604 17 183 0.0 19.3 0.00 0.00 0.00 53 1007.1
20260503220104 17 218 0.0 12.9 0.00 0.00 0.00 52 1007.1
20260503215604 17 236 8.0 12.9 0.00 0.00 0.00 53 1006.9
20260503215104 17 217 0.0 3.2 0.00 0.00 0.00 53 1006.8
20260503214104 17 195 3.2 14.5 0.00 0.00 0.00 52 1006.9
20260503213103 17 317 0.0 3.2 0.00 0.00 0.00 53 1007.4
20260503212603 17 219 0.0 19.3 0.00 0.00 0.00 52 1007.4
20260503212103 17 215 0.0 14.5 0.00 0.00 0.00 51 1007.5
20260503211103 17 189 1.6 12.9 0.00 0.00 0.00 51 1007.6
20260503210603 17 267 3.2 19.3 0.00 0.00 0.00 52 1007.7
20260503210104 17 215 4.8 22.5 0.00 0.00 0.00 49 1007.6
20260503205605 18 217 0.0 4.8 0.00 0.00 0.00 50 1007.4
20260503205103 17 196 12.9 24.1 0.00 0.00 0.00 49 1007.4
20260503204104 18 241 20.9 27.4 0.00 0.00 0.00 48 1007.3
20260503203603 17 204 19.3 27.4 0.00 0.00 0.00 48 1007.5
20260503203104 18 202 22.5 27.4 0.00 0.00 0.00 48 1007.6
20260503202604 18 205 24.1 24.1 0.00 0.00 0.00 48 1007.8
20260503201604 17 186 29.0 27.4 0.00 0.00 0.00 48 1008.3
20260503200603 17 236 6.4 19.3 0.00 0.00 0.00 48 1008.7
20260503200104 17 228 8.0 19.3 0.00 0.00 0.00 48 1008.9
20260503195604 17 182 0.0 4.8 0.00 0.00 0.00 49 1008.9
20260503195104 17 192 1.6 12.9 0.00 0.00 0.00 48 1008.9
20260503194604 17 225 8.0 19.3 0.00 0.00 0.00 48 1009.1
20260503194103 17 234 14.5 32.2 0.00 0.00 0.00 47 1009.1
20260503193604 17 193 20.9 27.4 0.00 0.00 0.00 48 1009.1
20260503193103 17 252 3.2 14.5 0.00 0.00 0.00 49 1009.4
20260503192603 17 209 0.0 24.1 0.00 0.00 0.00 48 1009.6
20260503192104 17 216 0.0 3.2 0.00 0.00 0.00 49 1010.0
20260503191603 16 194 0.0 19.3 0.00 0.00 0.00 48 1010.3
20260503190104 16 194 9.7 22.5 0.00 0.00 0.00 49 1010.6
20260503185604 16 186 0.0 3.2 0.00 0.00 0.00 48 1010.7
20260503185104 16 248 0.0 0.0 0.00 0.00 0.00 48 1011.0
20260503184603 16 203 14.5 19.3 0.00 0.00 0.00 47 1011.1
20260503184103 16 270 0.0 12.9 0.00 0.00 0.00 48 1011.4
20260503183603 16 218 0.0 9.7 0.00 0.00 0.00 46 1011.3
20260503183104 16 223 1.6 12.9 0.00 0.00 0.00 47 1011.2
20260503182604 16 218 0.0 0.0 0.00 0.00 0.00 47 1011.3
20260503182104 17 202 4.8 12.9 0.00 0.00 0.00 46 1011.6
20260503181604 17 252 3.2 22.5 0.00 0.00 0.00 48 1011.2
20260503181104 17 242 0.0 19.3 0.00 0.00 0.00 47 1011.1
20260503180104 17 195 0.0 3.2 0.00 0.00 0.00 48 1011.1
20260503175604 17 212 4.8 14.5 0.00 0.00 0.00 47 1011.3
20260503175104 17 214 6.4 37.0 0.00 0.00 0.00 46 1011.5
20260503174603 17 204 0.0 14.5 0.00 0.00 0.00 49 1011.6
20260503174104 17 179 0.0 0.0 0.00 0.00 0.00 49 1011.6
20260503173604 17 221 14.5 19.3 0.00 0.00 0.00 48 1011.6
20260503173104 17 186 0.0 3.2 0.00 0.00 0.00 49 1011.7
20260503172604 17 202 16.1 22.5 0.00 0.00 0.00 48 1011.9
20260503172104 17 176 8.0 19.3 0.00 0.00 0.00 49 1012.1
20260503171604 17 219 12.9 24.1 0.00 0.00 0.00 48 1012.2
20260503171104 17 218 1.6 19.3 0.00 0.00 0.00 48 1012.3
20260503170604 17 198 0.0 3.2 0.00 0.00 0.00 48 1012.4
20260503170104 17 233 0.0 0.0 0.00 0.00 0.00 48 1012.6
20260503150604 14 246 0.0 14.5 0.00 0.00 0.00 57 1014.4
20260503131104 9 238 0.0 0.0 0.00 0.00 0.00 71 1015.3
20260503130604 9 268 0.0 0.0 0.00 0.00 0.00 70 1015.3
20260503130103 8 206 0.0 0.0 0.00 0.00 0.00 71 1015.1
20260503120104 6 236 0.0 0.0 0.00 0.00 0.00 69 1015.0
20260503110604 5 212 0.0 0.0 0.00 0.00 0.00 71 1014.9
20260503100104 4 9 0.0 0.0 0.00 0.00 0.00 77 1014.8
20260503081604 3 5 0.0 0.0 0.00 0.00 0.00 79 1015.0
20260503081104 3 5 0.0 0.0 0.00 0.00 0.00 79 1015.0
20260503080103 3 31 0.0 0.0 0.00 0.00 0.00 79 1015.0
20260503072103 3 31 0.0 0.0 0.00 0.00 0.00 82 1015.1
20260503071103 3 31 0.0 0.0 0.00 0.00 0.00 83 1015.2
20260503070604 3 31 0.0 0.0 0.00 0.00 0.00 83 1015.3
20260503070104 3 31 0.0 0.0 0.00 0.00 0.00 83 1015.3
20260503060103 3 31 0.0 0.0 0.00 0.00 0.00 85 1015.6
20260503054604 3 31 0.0 0.0 0.00 0.00 0.00 85 1015.6
20260503054103 3 31 0.0 0.0 0.00 0.00 0.00 84 1015.6
20260503053603 3 31 0.0 0.0 0.00 0.00 0.00 84 1015.6
20260503053104 3 31 0.0 0.0 0.00 0.00 0.00 84 1015.7
20260503052603 3 31 0.0 0.0 0.00 0.00 0.00 83 1015.8
20260503052103 3 31 0.0 0.0 0.00 0.00 0.00 83 1015.8
20260503051603 3 31 0.0 0.0 0.00 0.00 0.00 83 1015.8
20260503051104 3 31 0.0 0.0 0.00 0.00 0.00 83 1015.8
20260503050603 3 31 0.0 0.0 0.00 0.00 0.00 83 1015.8
20260503045604 3 31 0.0 0.0 0.00 0.00 0.00 83 1015.9
20260503045103 3 31 0.0 0.0 0.00 0.00 0.00 82 1015.9
20260503044603 3 31 0.0 0.0 0.00 0.00 0.00 82 1015.8
20260503044103 3 31 0.0 0.0 0.00 0.00 0.00 82 1015.7
20260503043603 3 31 0.0 0.0 0.00 0.00 0.00 82 1015.7
20260503043103 3 31 0.0 0.0 0.00 0.00 0.00 82 1015.7
20260503041604 3 31 0.0 0.0 0.00 0.00 0.00 81 1015.8
20260503040603 3 31 0.0 0.0 0.00 0.00 0.00 82 1015.9
20260503040103 3 31 0.0 0.0 0.00 0.00 0.00 82 1015.9
20260503035603 3 31 0.0 0.0 0.00 0.00 0.00 81 1015.9
20260503034603 3 31 0.0 0.0 0.00 0.00 0.00 80 1015.9
20260503034103 3 31 0.0 0.0 0.00 0.00 0.00 81 1015.9
20260503033604 3 31 0.0 0.0 0.00 0.00 0.00 79 1016.0
20260503033103 3 31 0.0 0.0 0.00 0.00 0.00 78 1016.0
20260503032103 4 31 0.0 0.0 0.00 0.00 0.00 77 1016.0
20260503031604 4 31 0.0 0.0 0.00 0.00 0.00 77 1016.0
20260503031103 4 31 0.0 0.0 0.00 0.00 0.00 77 1016.1
20260503030603 4 31 0.0 0.0 0.00 0.00 0.00 77 1016.1
20260503025103 5 31 0.0 0.0 0.00 0.00 0.00 75 1016.1
20260503024603 5 31 0.0 0.0 0.00 0.00 0.00 74 1016.1
20260503024104 5 31 0.0 0.0 0.00 0.00 0.00 73 1016.1
20260503023604 5 31 0.0 0.0 0.00 0.00 0.00 74 1016.0
20260503023104 5 31 0.0 0.0 0.00 0.00 0.00 74 1015.9
20260503022603 5 31 0.0 0.0 0.00 0.00 0.00 73 1015.9
20260503022103 5 31 0.0 0.0 0.00 0.00 0.00 71 1015.8
20260503021104 5 31 0.0 0.0 0.00 0.00 0.00 70 1015.7
20260503020604 6 31 0.0 0.0 0.00 0.00 0.00 71 1015.7
20260503015604 6 31 0.0 0.0 0.00 0.00 0.00 71 1015.7
20260503015104 6 31 0.0 0.0 0.00 0.00 0.00 70 1015.7
20260503014103 6 31 0.0 0.0 0.00 0.00 0.00 69 1015.6
20260503013603 7 31 0.0 0.0 0.00 0.00 0.00 68 1015.6
20260503013103 7 31 0.0 0.0 0.00 0.00 0.00 67 1015.5
20260503012605 7 31 0.0 0.0 0.00 0.00 0.00 66 1015.5
20260503012104 7 31 0.0 0.0 0.00 0.00 0.00 66 1015.5
20260503011603 7 32 0.0 0.0 0.00 0.00 0.00 66 1015.5
20260503010604 7 37 0.0 0.0 0.00 0.00 0.00 67 1015.4
20260503010103 8 37 0.0 0.0 0.00 0.00 0.00 68 1015.4
20260503005604 8 37 0.0 0.0 0.00 0.00 0.00 65 1015.4
20260503005103 8 37 0.0 0.0 0.00 0.00 0.00 64 1015.5
20260503004604 8 55 0.0 0.0 0.00 0.00 0.00 62 1015.5
20260503004103 8 56 0.0 0.0 0.00 0.00 0.00 61 1015.5
20260503003604 9 55 0.0 0.0 0.00 0.00 0.00 60 1015.4
20260503003104 9 56 0.0 0.0 0.00 0.00 0.00 59 1015.3
20260503002604 10 55 0.0 0.0 0.00 0.00 0.00 58 1015.3
20260503002104 10 56 0.0 0.0 0.00 0.00 0.00 55 1015.3
20260503001604 10 56 0.0 0.0 0.00 0.00 0.00 54 1015.2
20260503001104 10 56 0.0 0.0 0.00 0.00 0.00 54 1015.2